Theta_e
342 343 343 344 345 347 350 352 351 352 352 352 351 352 351 351 350 350 349 349 347 344 343 343 343 342 346 343 345 344 343 342 342 342 342 342 342 341 341 342 342 342 343 344 346 346 346 347 347 347 347 347 347 340 337 336 338 338 335 335 336 334
340 340 342 345 347 348 350 350 348 349 349 350 351 352 350 349 351 346 349 347 344 346 343 343 343 348 344 344 344 345 344 343 342 342 341 342 342 342 341 343 343 343 343 344 345 338 342 348 348 348 347 347 341 338 337 336 337 333 333 332 335 339
340 340 342 344 347 348 348 348 348 348 349 350 351 350 348 349 345 345 346 345 347 346 343 344 345 347 344 346 345 346 345 345 343 342 342 342 342 343 343 343 344 344 344 344 339 338 339 339 341 349 349 345 339 337 337 337 338 333 332 334 335 343
340 340 340 342 345 345 346 347 347 347 346 346 347 348 347 346 345 344 344 345 346 347 347 344 352 351 347 345 344 345 345 345 344 343 343 341 343 342 344 343 344 343 344 341 334 335 339 340 339 339 339 338 337 337 338 338 339 330 333 339 336 345
341 340 339 341 343 343 343 345 345 346 346 346 346 345 346 346 345 344 344 345 346 345 345 343 343 344 341 340 338 338 339 339 339 339 343 338 335 338 339 337 336 337 332 332 331 332 335 338 340 339 338 337 336 336 337 339 338 332 334 336 338 345
342 340 339 339 340 343 342 343 342 345 345 345 346 345 345 344 345 345 345 344 346 344 341 340 340 340 341 340 339 338 337 338 338 341 342 340 338 335 333 334 329 328 329 330 330 331 332 337 339 338 337 337 337 337 338 338 335 334 334 334 340 346
341 338 338 339 338 340 337 341 343 344 343 343 344 342 342 342 343 343 343 344 341 339 339 336 338 340 340 341 341 339 339 340 339 338 342 340 340 337 332 328 327 326 326 327 327 328 328 331 336 340 338 337 337 338 337 337 334 334 333 334 341 348
339 337 336 337 337 336 336 340 342 348 343 343 342 340 341 340 342 342 342 342 346 341 339 340 342 340 341 339 339 340 341 340 340 340 343 340 339 339 334 330 329 327 327 327 327 327 325 327 332 335 336 337 337 337 336 335 336 335 334 334 337 346
341 338 336 336 334 333 336 339 342 341 338 347 337 338 339 340 340 341 341 342 348 340 340 341 341 341 339 339 340 340 341 342 340 341 343 341 340 340 340 339 339 339 338 338 336 335 336 335 333 330 330 328 330 332 334 334 334 335 333 334 335 341
337 336 335 335 337 337 337 337 338 339 341 346 338 339 339 338 337 337 341 344 344 341 342 342 342 341 340 340 340 341 343 341 341 341 342 342 340 341 339 339 339 339 340 338 339 338 338 335 333 332 329 331 331 331 330 332 332 332 333 332 335 336
337 338 336 336 337 337 337 336 338 337 337 338 337 340 340 341 341 342 342 343 345 346 344 344 343 340 341 339 338 338 340 340 340 341 342 342 340 341 341 340 339 338 338 338 340 339 337 334 333 333 333 332 333 333 333 335 334 334 333 333 337 337
337 339 339 337 338 337 338 340 338 338 341 341 341 339 339 340 342 342 343 344 343 344 345 342 341 342 341 338 337 336 337 338 340 341 340 340 339 340 340 340 341 341 340 340 340 339 338 336 335 335 335 335 334 334 336 336 334 334 334 334 334 336
340 339 337 337 336 337 337 339 340 341 342 341 339 340 339 340 342 343 343 342 343 343 343 343 342 341 342 338 338 338 338 339 341 341 341 343 344 341 341 340 339 340 339 339 338 337 339 338 335 336 337 338 334 335 338 338 333 334 333 334 334 334
337 337 337 337 337 336 336 338 341 342 343 340 338 338 341 340 341 342 343 340 341 343 341 341 342 342 340 338 338 338 337 338 340 343 342 341 340 338 337 338 338 337 342 337 335 335 335 335 336 337 337 339 336 334 337 337 334 334 333 333 333 332
336 334 335 335 336 336 336 337 339 341 341 339 340 341 341 340 340 341 342 341 340 342 342 340 341 343 339 338 337 337 340 340 342 342 341 342 342 340 337 337 337 336 337 336 337 336 336 335 334 335 335 337 338 336 336 334 333 334 334 334 333 334
335 335 333 335 335 336 335 335 337 339 338 339 340 340 339 339 339 339 340 338 340 342 341 340 341 340 339 340 339 339 339 342 344 341 341 343 342 340 339 338 338 337 334 335 335 335 335 335 334 334 335 336 337 337 336 335 336 336 336 335 334 334
333 333 334 334 335 336 337 339 338 337 337 337 337 338 339 339 338 338 338 338 338 341 341 339 338 338 338 339 340 337 337 340 342 342 342 338 338 338 337 339 336 338 335 334 334 334 334 334 334 334 333 333 334 335 335 336 337 337 339 336 334 333
336 336 335 334 334 334 336 337 336 336 338 339 339 340 338 337 338 338 339 337 337 339 341 338 336 337 337 338 339 339 338 339 342 343 340 337 336 337 337 336 335 336 338 336 334 334 333 333 334 334 333 333 333 334 334 336 337 338 336 336 335 334
336 337 336 334 334 334 336 334 333 333 335 337 337 337 337 336 338 338 338 338 339 338 337 338 338 339 337 337 335 337 339 340 340 338 338 336 336 336 336 335 334 335 337 336 334 334 333 333 333 332 333 333 333 333 334 334 336 336 336 336 337 338
335 335 334 332 333 333 333 333 333 333 332 335 336 337 337 336 337 338 339 339 338 337 338 338 337 339 336 335 335 337 338 338 338 336 334 333 331 332 333 333 333 333 333 334 335 334 334 333 331 330 330 331 332 333 333 334 333 333 333 334 336 337
336 336 333 332 332 331 329 330 332 331 331 333 335 337 335 337 337 338 338 337 338 337 336 336 338 339 338 337 335 335 337 336 337 336 334 333 334 334 334 333 332 331 331 331 331 333 333 333 328 325 326 327 328 330 332 333 331 331 334 334 334 334
336 334 332 331 332 332 331 330 330 330 332 332 332 333 333 333 334 336 336 337 337 336 336 336 336 338 338 337 336 336 336 335 334 334 336 336 336 337 334 333 332 328 330 328 328 332 332 331 324 323 322 323 322 326 327 330 331 331 333 334 334 334
334 332 332 333 333 333 333 332 331 331 332 332 335 336 336 336 336 335 333 335 336 336 338 338 336 336 335 334 333 333 334 332 333 334 331 330 329 329 330 329 330 328 326 327 327 331 329 330 324 327 325 319 316 318 320 324 327 328 329 331 332 333
333 333 333 334 334 334 335 336 334 333 333 332 331 333 333 335 334 333 334 337 337 334 333 332 332 333 332 331 331 330 331 331 330 331 327 325 325 325 326 327 327 327 326 323 324 325 327 327 327 325 319 319 317 316 313 317 322 326 326 328 329 332
333 333 332 334 334 334 335 333 334 332 331 330 331 331 330 330 332 334 333 332 331 331 330 329 330 330 331 329 328 327 327 326 326 327 326 324 323 323 324 324 325 324 323 321 321 321 323 326 327 329 325 320 317 316 317 320 322 322 325 325 326 327
332 332 332 332 333 333 332 330 328 326 325 325 324 324 326 328 330 331 330 330 330 329 327 326 326 326 326 328 326 326 325 324 323 324 324 322 322 322 322 322 324 323 321 322 320 318 319 323 325 326 327 329 326 319 317 320 320 314 323 323 325 326
331 331 333 333 332 332 330 329 327 326 326 325 324 326 330 333 332 331 330 328 326 325 325 324 324 323 323 324 323 323 323 322 322 322 325 321 319 319 321 322 324 321 321 321 320 317 317 319 320 322 322 322 323 322 322 319 315 317 313 318 321 321
332 332 333 333 331 331 329 328 327 327 327 327 327 328 331 332 331 330 328 326 324 322 322 322 321 321 321 321 321 320 320 319 319 321 322 319 318 318 319 321 322 320 320 320 318 316 316 317 316 315 319 317 318 318 318 318 318 315 315 312 312 317
331 331 331 331 331 331 330 328 328 328 327 328 330 329 330 330 329 328 326 325 322 320 320 319 319 319 319 319 320 319 318 318 318 318 321 318 317 317 317 317 317 317 317 316 317 318 315 314 315 314 314 314 314 313 314 315 315 315 312 310 310 311
329 329 329 330 331 331 331 330 328 328 327 327 328 327 327 326 326 326 323 320 319 318 318 317 317 317 317 317 317 318 317 317 316 318 320 316 315 315 316 317 316 315 315 314 315 316 315 315 314 314 313 313 311 311 311 311 312 312 311 312 310 310
326 327 327 328 329 329 329 330 329 328 328 327 326 325 324 325 324 322 320 318 316 315 316 315 316 316 316 316 316 319 316 316 317 318 316 315 314 314 315 315 315 314 313 312 313 314 314 314 313 312 312 311 310 310 310 309 310 310 310 308 308 308
323 323 324 324 324 325 325 325 325 325 324 324 324 324 323 322 323 322 320 317 315 314 313 314 314 314 314 315 317 314 315 313 314 313 313 314 314 314 314 314 313 312 311 312 313 314 312 311 310 310 310 310 310 311 310 309 310 310 308 307 307 306
320 321 321 322 321 321 322 322 323 322 323 323 321 321 320 318 319 318 317 315 313 312 312 312 312 313 312 313 313 312 312 311 311 313 313 312 313 313 313 311 311 310 311 311 311 311 310 309 309 309 308 309 309 310 309 310 310 308 308 308 307 304
318 319 319 318 318 319 319 319 319 319 319 318 317 317 317 316 316 316 316 314 313 312 311 312 311 311 313 314 312 312 311 310 311 311 312 312 312 312 312 311 309 309 310 310 310 309 309 309 309 308 308 307 307 308 307 308 308 307 306 305 304 304
317 317 317 316 316 316 317 318 318 318 318 318 317 316 316 316 315 315 315 314 313 312 311 312 311 312 313 312 311 311 311 309 309 309 309 309 311 310 310 311 309 309 310 310 309 309 308 307 308 307 306 307 308 307 307 308 307 306 307 305 303 303
316 316 316 316 315 315 315 316 317 317 318 318 318 316 315 315 315 315 314 313 312 312 312 311 311 310 311 310 309 308 308 307 308 308 308 308 308 308 309 308 307 307 307 312 308 307 307 307 306 306 306 307 306 305 306 305 305 305 304 304 302 302
315 314 314 314 314 314 313 314 314 315 316 316 315 314 313 313 314 314 313 312 312 312 313 311 312 311 309 309 309 308 307 306 307 306 306 307 307 307 308 307 306 306 306 306 308 306 306 305 305 305 305 305 304 303 303 303 303 303 303 302 301 301
Wind_Speed
6 6 6 5 5 5 9 14 12 15 15 15 13 14 12 13 12 11 10 10 10 5 4 4 4 3 6 3 5 5 5 5 5 5 5 4 3 2 2 2 1 2 2 1 2 3 5 6 7 8 8 7 8 5 5 4 1 1 6 3 5 6
6 6 6 5 5 4 6 9 7 7 7 9 10 11 8 6 8 4 9 8 5 5 4 3 3 6 3 4 4 6 5 5 5 5 5 5 4 3 4 3 4 4 4 3 3 2 3 6 8 8 7 7 5 5 6 5 1 1 4 4 4 7
7 7 7 6 5 5 6 6 6 5 5 7 6 7 5 6 4 4 4 5 5 4 5 4 3 5 5 6 5 6 5 4 4 5 5 5 5 6 6 6 6 6 5 4 2 3 4 4 5 9 8 5 4 5 6 5 2 3 5 5 4 11
9 9 7 6 6 5 5 5 5 5 5 4 4 5 4 5 5 5 6 5 4 4 5 4 8 9 9 4 4 6 6 5 5 5 6 4 5 6 7 7 8 8 5 3 3 3 4 4 5 5 4 5 5 5 5 5 5 4 5 6 5 12
10 8 7 6 6 6 5 6 5 5 5 4 5 5 5 5 6 6 6 4 4 3 3 5 4 3 5 4 3 2 2 1 1 2 4 2 3 4 4 4 4 4 3 3 4 5 4 5 5 5 5 5 5 5 5 5 7 3 5 4 5 12
9 7 7 7 7 6 7 6 5 6 5 4 4 5 4 5 5 6 4 4 4 4 4 4 3 3 4 3 2 2 2 1 2 3 3 4 3 3 3 4 4 4 5 4 5 5 4 4 5 6 6 5 5 5 5 6 6 4 5 6 7 14
9 8 9 7 6 6 6 6 6 6 6 5 5 4 5 5 4 4 4 4 5 4 4 4 2 3 2 3 2 2 3 4 5 5 4 4 5 4 3 4 4 5 4 3 5 5 5 5 5 7 6 6 6 5 6 5 6 3 4 3 4 13
10 10 8 8 6 6 5 6 6 7 7 8 7 6 6 5 4 5 4 3 2 2 6 6 4 3 3 3 2 1 1 2 3 5 5 5 5 5 5 5 5 6 6 5 5 4 4 2 1 4 4 6 6 7 7 5 2 2 5 5 5 10
8 9 7 7 7 6 5 7 6 5 6 6 5 4 5 4 3 3 3 3 5 4 4 5 5 4 3 2 1 2 1 2 2 1 2 3 1 1 2 3 2 1 2 1 2 3 5 6 4 1 4 6 5 5 4 3 2 1 3 3 5 7
9 9 8 7 5 6 7 8 6 5 5 3 3 5 4 3 3 4 4 5 4 3 4 4 5 3 2 2 2 3 4 4 3 3 5 4 2 1 2 3 3 3 4 3 4 5 4 5 5 4 3 3 3 5 3 1 3 3 3 3 2 3
6 6 6 4 4 7 6 6 5 3 5 5 3 5 5 4 5 5 5 4 4 3 3 4 3 2 3 3 2 2 3 4 4 4 3 3 2 2 2 1 2 3 3 3 3 3 5 5 5 6 2 3 5 4 4 4 3 3 3 4 3 1
5 4 5 5 6 7 6 5 4 7 7 6 5 5 5 5 4 4 4 4 4 4 3 4 4 3 2 1 2 3 2 2 4 4 2 2 2 1 2 3 3 3 3 3 4 4 4 4 5 5 1 1 2 4 2 2 2 2 1 2 2 2
7 10 10 9 8 6 6 6 6 6 6 6 5 5 5 5 4 4 4 5 4 4 4 5 4 3 2 1 1 4 3 3 4 4 3 2 1 2 3 4 4 3 4 4 4 5 4 3 3 4 4 4 3 1 0 0 1 1 2 2 1 0
8 8 7 6 6 6 6 6 6 6 7 7 5 5 5 4 4 4 4 5 4 4 5 4 4 2 1 2 2 3 3 4 3 3 2 2 1 1 2 3 4 4 4 4 5 5 5 5 5 4 4 3 2 2 1 0 2 3 3 3 2 1
7 6 5 6 6 6 7 6 6 6 7 7 5 4 4 4 4 4 4 4 3 4 5 5 4 4 4 3 3 4 5 4 3 1 2 2 2 3 3 3 3 3 4 4 4 5 5 5 4 5 5 4 5 3 2 3 3 3 4 5 3 3
6 5 4 4 4 6 6 6 5 5 5 6 5 4 4 3 3 3 4 4 5 4 5 5 5 5 4 4 4 5 4 5 4 1 1 4 4 5 4 3 3 2 3 4 3 4 4 4 4 4 5 5 5 4 4 4 4 4 5 4 4 3
7 4 3 3 6 5 6 6 5 4 5 5 5 4 3 2 4 4 4 4 5 6 5 4 4 3 2 5 5 3 4 4 4 3 4 3 4 3 3 4 4 4 3 3 4 4 5 4 4 5 5 5 6 5 5 5 4 5 4 4 4 4
8 5 3 4 5 6 6 6 5 4 4 5 5 3 3 3 3 4 5 5 4 4 5 4 3 2 3 4 2 2 3 4 3 3 4 4 4 4 5 4 5 4 5 4 4 4 5 5 4 4 4 5 6 5 6 5 5 4 5 5 5 4
8 7 6 5 5 5 6 6 3 3 4 4 5 4 3 4 4 4 4 3 4 3 2 2 3 3 3 3 2 2 4 6 4 4 4 4 4 4 4 5 4 5 5 4 3 4 4 4 4 4 5 7 6 7 7 6 5 4 4 5 5 5
8 8 8 6 4 5 4 5 6 3 4 3 4 5 5 5 4 4 4 4 3 3 4 4 4 0 1 3 6 6 4 2 2 3 2 2 2 3 3 4 5 4 5 5 4 4 5 5 4 5 5 6 6 7 7 6 4 3 3 4 5 4
8 8 8 7 5 5 5 6 4 5 5 3 4 6 6 4 4 3 3 3 2 3 4 4 3 0 4 5 1 5 1 2 3 2 3 3 3 3 3 3 3 3 4 5 4 5 6 5 4 4 4 5 7 6 6 5 2 2 4 6 4 4
8 7 8 8 6 5 2 3 4 5 6 4 5 6 6 4 3 3 3 2 4 2 1 4 2 3 5 2 3 4 4 4 5 6 4 5 5 4 4 5 4 4 4 4 4 5 8 8 3 5 6 6 5 6 5 2 2 2 5 5 4 4
6 7 7 8 7 6 3 2 2 4 6 5 5 5 5 4 3 3 4 3 1 4 1 2 3 6 6 5 4 4 5 5 6 6 7 7 7 7 6 7 6 5 5 3 3 4 7 7 5 7 5 1 4 6 6 4 5 8 6 5 5 4
7 6 6 6 7 6 5 3 3 5 6 6 5 6 6 5 4 4 3 0 2 4 8 9 8 6 5 5 6 6 6 7 7 7 6 6 6 7 7 7 6 6 4 6 6 5 6 7 6 8 5 2 3 2 5 4 8 8 2 6 5 4
6 7 6 6 8 7 8 6 6 6 7 8 6 5 5 6 4 2 6 6 8 9 9 8 6 6 5 6 6 7 7 6 6 6 6 6 6 6 5 5 6 6 7 4 4 3 5 6 7 7 4 4 3 2 2 6 10 4 5 6 5 7
5 5 7 6 7 7 8 9 9 8 7 6 5 4 6 7 5 5 7 6 8 9 8 7 7 7 8 6 6 6 6 5 5 5 6 5 5 5 6 6 6 4 5 5 2 4 4 4 3 7 6 5 2 4 6 6 5 7 6 1 3 4
5 5 5 6 6 6 7 6 6 7 8 8 8 3 3 5 7 7 7 8 8 7 7 7 6 7 8 8 7 7 7 6 6 5 4 5 6 5 5 4 4 5 5 5 5 5 5 5 2 6 6 7 6 5 4 5 5 6 9 3 3 6
5 4 4 5 6 4 6 5 6 5 7 7 7 7 6 7 7 7 8 8 7 7 7 6 7 7 8 7 7 7 6 6 6 6 5 5 5 5 5 4 4 4 5 5 5 5 5 6 6 6 6 7 5 4 5 3 3 4 4 7 11 4
6 6 5 6 6 5 5 6 5 6 8 5 7 8 8 8 7 7 8 8 8 6 6 6 7 7 6 6 5 5 5 6 6 5 5 6 5 5 5 4 7 7 6 6 5 4 5 6 6 6 6 5 4 6 4 3 3 4 4 5 5 9
8 6 6 6 6 7 7 6 6 7 8 6 7 8 7 7 7 7 8 8 7 6 5 6 6 6 5 4 4 4 5 5 5 5 6 6 6 7 6 5 6 6 6 5 5 5 6 6 6 5 6 5 6 6 4 4 5 7 4 3 6 8
8 6 6 5 6 6 5 5 6 7 9 10 9 8 8 7 7 7 8 7 7 6 6 6 5 5 4 4 5 6 6 6 6 6 6 5 6 5 5 5 6 6 6 6 6 5 6 5 5 6 7 6 7 7 7 8 8 9 8 7 8 6
9 8 8 8 9 8 7 8 8 9 10 8 7 7 7 7 6 6 8 8 6 7 6 5 5 3 3 5 5 6 6 6 6 6 6 5 5 6 5 5 5 5 5 6 5 5 6 6 7 6 6 6 7 6 7 7 7 8 8 7 7 8
9 8 8 9 9 8 8 8 8 8 8 8 9 9 9 10 8 8 7 8 7 7 6 6 3 3 4 5 7 7 6 6 6 5 5 5 5 5 5 5 5 4 5 6 5 6 6 7 6 6 6 5 5 6 7 6 7 7 7 6 7 7
10 9 8 9 9 10 8 8 9 9 9 9 10 11 9 9 8 8 7 8 7 6 6 3 2 4 4 5 6 5 5 5 5 5 4 5 5 4 5 5 5 5 5 6 6 7 6 6 6 5 4 5 6 7 6 6 6 7 7 7 7 9
11 9 10 9 9 10 9 9 9 9 9 9 9 9 8 7 8 9 8 8 7 6 4 0 2 4 6 6 5 5 5 5 5 6 6 6 6 6 6 5 5 6 6 6 7 6 5 6 6 6 6 6 7 7 7 7 7 8 9 9 9 10
10 10 9 10 9 9 9 9 10 10 10 10 9 8 8 7 8 8 7 7 7 4 1 1 3 5 5 5 4 5 5 6 6 6 6 6 6 6 6 6 6 6 6 4 5 6 5 6 7 7 7 7 8 9 9 9 9 9 9 9 9 9
9 9 9 9 9 9 9 10 9 10 10 10 10 10 9 9 9 8 7 7 5 1 0 2 5 4 4 4 4 5 6 6 7 6 6 5 6 5 5 5 6 6 5 4 5 5 6 7 7 8 9 11 10 9 9 9 9 9 9 9 8 8
Wind_Direction
127 126 119 113 108 116 132 131 133 137 141 142 145 144 139 136 135 135 133 134 133 135 147 153 143 138 146 143 141 149 149 150 153 159 165 169 182 193 235 277 286 300 311 309 312 272 261 271 277 284 291 301 312 318 304 306 6 292 131 167 145 150
128 125 121 119 120 127 124 127 133 140 142 147 147 141 135 137 136 131 139 141 148 158 159 168 165 156 138 147 153 170 172 160 164 173 179 188 186 217 228 252 264 267 274 272 282 282 269 263 264 266 275 285 300 296 294 299 1 141 145 141 164 161
132 130 127 126 129 129 128 130 133 139 146 150 148 133 146 141 131 145 155 166 177 173 165 183 170 167 155 164 169 177 182 179 179 178 193 207 218 220 224 230 242 253 253 257 248 239 258 247 257 262 261 269 273 277 282 288 307 158 157 155 169 165
135 140 135 127 129 136 135 135 147 141 145 149 151 151 165 151 159 164 171 193 187 176 175 179 180 174 168 156 178 182 191 190 197 207 199 212 233 236 240 243 246 246 250 241 237 242 237 243 246 247 245 245 254 260 262 271 273 165 166 167 171 166
137 144 133 131 139 152 147 146 152 148 154 162 166 176 176 171 166 180 183 181 185 190 185 173 182 127 131 151 173 197 213 216 261 268 241 228 248 257 253 271 277 275 264 253 251 240 226 231 234 234 230 234 242 245 250 256 263 161 173 161 168 172
142 139 134 142 155 168 155 154 151 156 160 169 181 186 186 176 170 182 181 183 194 189 169 152 162 128 139 152 178 198 186 200 239 242 232 266 266 245 249 249 259 259 264 264 265 261 244 234 219 216 223 228 234 243 246 249 250 158 171 171 181 178
133 131 141 157 163 168 165 160 148 151 162 176 184 187 169 178 195 173 179 189 180 174 151 129 96 81 104 137 151 203 199 207 227 220 207 211 248 234 238 260 275 266 261 248 254 259 264 257 227 210 219 224 223 239 243 252 275 106 169 173 183 180
138 142 158 167 165 168 161 149 157 162 169 182 178 183 170 183 188 152 156 164 105 70 115 125 125 112 115 114 147 189 228 292 252 240 197 197 233 236 217 232 247 257 271 280 283 284 265 239 231 252 240 225 220 222 236 225 248 154 171 166 181 195
141 144 163 163 163 163 138 147 150 159 177 184 172 145 159 160 140 131 143 95 70 82 77 84 80 74 79 67 15 319 296 236 234 209 179 213 200 72 161 184 196 181 195 242 269 310 349 333 330 305 262 261 241 218 182 182 197 10 119 173 192 200
131 141 146 138 136 122 134 136 152 163 174 133 137 142 147 130 138 99 65 74 87 90 81 77 80 66 62 25 17 346 351 346 340 340 4 10 5 92 45 5 349 338 345 333 334 323 329 328 322 335 338 315 324 306 309 65 50 71 19 88 197 227
116 125 128 111 114 112 114 125 142 142 75 97 92 75 73 73 70 81 89 79 78 64 73 65 66 67 49 42 3 344 333 330 324 325 352 330 329 3 350 336 291 309 313 312 301 303 324 325 324 313 320 20 347 354 354 28 36 16 31 28 29 305
118 103 83 85 67 59 50 45 48 58 72 64 76 76 70 66 65 55 58 58 54 63 63 64 52 48 59 43 355 336 313 315 300 308 315 276 304 321 326 322 327 312 321 331 321 322 313 318 317 313 341 56 11 3 360 53 48 14 356 301 69 51
52 51 53 65 78 81 67 51 49 59 65 66 54 59 59 46 50 44 40 43 34 50 53 48 49 38 25 43 343 301 318 316 305 304 307 327 30 5 356 346 332 344 331 331 335 328 320 307 302 308 329 342 0 342 267 94 222 214 255 270 216 132
62 67 76 82 88 88 75 63 55 56 59 63 48 54 47 39 37 38 38 37 34 32 44 42 28 9 58 20 350 315 295 285 289 324 4 32 21 343 332 335 316 342 325 328 318 306 310 314 307 314 328 309 326 276 237 232 222 251 263 263 248 185
60 65 72 81 90 90 84 71 61 60 63 67 47 40 46 39 33 27 30 31 31 41 35 32 15 10 10 358 344 330 314 296 302 327 23 346 4 328 317 300 303 316 314 316 300 296 298 293 296 301 292 294 292 270 219 240 247 224 238 248 251 228
62 71 69 82 74 76 80 73 72 75 87 92 86 55 51 36 27 35 32 25 12 28 43 25 22 10 347 341 351 337 321 331 290 35 17 6 11 350 315 307 295 281 313 308 310 303 302 290 290 285 286 288 276 269 259 252 235 225 229 232 236 227
115 105 100 81 75 75 76 72 75 66 63 67 76 66 68 56 32 36 24 37 15 18 30 30 27 359 332 352 5 338 317 336 355 9 42 23 24 7 18 5 352 342 328 305 311 306 312 304 288 282 283 288 286 283 269 245 230 229 235 231 223 225
127 125 124 91 91 81 72 77 64 73 101 100 97 104 91 76 52 38 31 26 27 18 32 20 13 351 354 354 330 269 310 336 332 5 40 26 358 10 8 13 348 332 328 322 317 319 308 308 301 302 299 291 285 276 267 252 226 226 225 247 243 213
126 123 109 100 96 85 95 97 101 100 78 84 93 88 84 64 51 46 49 31 20 31 20 28 27 13 344 263 255 343 16 356 1 23 36 24 12 5 2 356 353 329 328 318 321 314 304 304 311 308 300 291 289 281 273 261 246 239 234 239 249 237
132 126 117 105 115 115 113 134 138 131 80 76 112 98 69 53 46 43 29 31 26 15 27 19 24 299 248 314 14 0 6 313 306 47 40 38 358 17 357 349 346 342 337 332 335 318 319 318 313 313 300 299 287 282 278 264 244 234 241 253 253 258
145 135 125 133 134 136 134 132 131 132 126 129 106 92 73 66 69 67 46 37 29 27 40 0 293 308 25 28 350 239 277 355 3 13 39 21 10 3 358 351 334 335 347 346 334 342 324 306 321 315 307 300 301 290 278 277 276 262 260 261 263 261
132 129 127 138 138 133 148 175 149 149 128 107 89 81 88 69 55 45 59 43 23 25 218 229 264 10 54 99 42 14 22 23 24 19 30 27 29 14 18 16 8 10 355 359 351 350 353 350 6 336 320 321 316 311 314 43 91 331 293 281 270 259
128 131 137 139 131 126 137 174 163 132 124 123 92 92 106 97 81 65 27 47 70 270 258 86 52 49 46 35 30 30 34 31 29 31 39 32 22 20 15 18 14 23 0 358 360 11 13 21 355 321 288 323 323 357 330 357 356 332 324 304 287 267
136 137 136 135 123 125 130 122 84 95 88 85 105 96 88 91 71 62 25 354 75 66 55 53 48 49 46 39 32 29 25 33 35 41 46 40 28 26 19 17 16 19 15 17 9 3 10 7 15 6 13 330 271 352 336 347 333 309 320 341 342 311
146 139 133 127 125 128 122 107 100 80 77 81 67 82 94 74 68 53 82 64 53 52 50 48 43 41 36 36 37 40 42 38 40 40 41 42 34 24 19 11 16 25 26 18 12 354 355 10 14 32 9 352 351 25 22 330 324 268 5 329 357 6
124 124 131 134 136 137 139 139 138 131 122 116 112 104 109 121 126 100 73 72 61 59 60 56 46 41 36 31 37 43 42 39 40 38 41 41 32 22 14 13 10 25 20 10 2 17 2 358 14 35 27 46 324 336 340 325 350 321 340 263 10 10
127 120 122 129 130 128 126 135 136 137 130 133 126 124 125 103 107 98 89 76 74 64 59 58 47 45 40 36 34 32 32 27 24 28 34 41 36 23 6 8 10 23 18 8 19 33 14 349 357 37 22 22 21 13 354 351 357 321 331 325 70 3
122 121 115 117 120 120 124 119 115 109 113 114 119 126 108 100 94 100 97 91 84 73 59 54 54 49 45 42 38 36 33 31 29 24 31 36 34 14 11 8 23 26 27 28 25 30 19 17 31 17 11 15 9 2 1 5 18 351 290 317 323 359
120 117 116 124 126 121 116 121 126 123 113 114 108 101 99 102 108 107 101 98 89 81 66 58 55 54 50 44 40 41 38 37 33 25 32 32 23 13 14 16 27 30 31 24 23 27 43 30 31 22 11 11 0 7 348 351 4 355 0 319 316 344
123 123 134 133 128 128 131 131 129 130 122 118 105 100 104 111 110 107 99 93 91 80 72 60 53 50 47 42 40 38 41 41 33 27 34 31 21 15 17 33 38 36 25 16 10 33 48 41 35 17 23 9 15 354 360 5 13 1 349 16 346 338
102 104 106 103 103 108 117 113 115 112 109 108 109 111 110 107 106 103 102 99 92 85 73 66 59 47 42 36 23 32 38 34 33 31 31 26 23 18 20 38 39 31 22 16 6 31 43 42 33 25 22 21 14 8 10 12 7 10 8 359 348 348
91 91 88 85 81 84 86 91 89 89 91 96 103 103 99 91 83 91 93 91 87 79 65 62 56 34 15 9 31 42 38 35 30 29 28 20 20 24 34 39 35 29 15 12 22 42 51 43 37 35 27 18 16 14 28 23 15 12 10 357 355 345
95 89 84 82 79 75 75 73 73 75 73 72 69 72 75 76 70 76 81 81 74 70 63 59 23 10 355 34 53 42 35 32 29 25 29 26 16 29 42 45 33 19 18 29 34 45 49 43 43 41 29 16 24 31 32 23 19 17 9 359 357 342
102 93 87 81 78 74 70 72 72 74 75 76 74 73 71 77 76 76 80 85 81 79 75 53 10 350 359 55 56 48 41 35 32 26 25 21 24 25 38 46 29 20 22 31 37 38 43 43 36 33 26 26 28 34 32 23 22 16 7 1 357 357
101 94 88 87 81 77 74 73 76 77 77 80 81 79 76 78 80 81 79 87 89 83 95 74 14 34 52 56 55 45 45 42 30 27 25 28 25 25 30 38 27 22 25 38 40 39 42 42 30 19 17 26 42 38 31 23 25 17 18 19 12 6
97 95 92 86 82 81 78 77 74 76 77 83 86 85 81 73 73 75 77 77 81 88 91 18 29 62 47 63 59 53 50 45 35 29 29 33 33 33 30 35 26 25 35 33 38 39 42 34 28 23 29 42 44 34 31 25 27 24 28 23 18 12
93 90 88 87 87 84 82 81 78 80 82 84 85 88 88 83 80 80 84 86 96 156 51 60 81 69 62 51 63 63 55 47 38 30 28 30 34 33 34 33 29 28 33 18 30 34 41 39 32 31 38 45 45 37 32 29 27 27 23 23 16 10